Powrót do katalogu

FREGAT DEB

AktywnyUNKNOWN
NORAD 49271·DEBRIS·🇷🇺 Russia

Wystrzelony Jul 18, 2011 z Baikonur Cosmodrome

Loading…

Następne Przeloty (najbliższe 24 godziny)

TLE

ŚwieżeSource: Space-Track

Epoka: Sep 13, 2026, 17:37 UTC

1 49271U 11037PF  26256.73444482  .00015379  00000-0  21697-1 0  9993
2 49271  51.6442  95.2041 0941670 119.1674 250.6712 12.44406137236066

Śledź FREGAT DEB w czasie rzeczywistym z AllMySat

Download on the App Store